TimeCST,TemperatureF,Dew PointF,Humidity,Sea Level PressureIn,VisibilityMPH,Wind Direction,Wind SpeedMPH,Gust SpeedMPH,PrecipitationIn,Events,Conditions,WindDirDegrees,DateUTC
12:15 AM,10.4,6.8,85,29.80,3.0,Calm,Calm,-,N/A,,Mist,0,2014-02-18 06:15:00
12:35 AM,12.2,8.6,85,29.79,2.5,ESE,4.6,-,N/A,,Mist,110,2014-02-18 06:35:00
12:55 AM,12.2,8.6,85,29.79,0.2,ESE,3.5,-,N/A,Snow,Light Snow,120,2014-02-18 06:55:00
1:15 AM,10.4,8.6,92,29.77,2.0,ESE,3.5,-,N/A,,Mist,120,2014-02-18 07:15:00
1:35 AM,12.2,10.4,92,29.78,3.0,Calm,Calm,-,N/A,,Mist,0,2014-02-18 07:35:00
1:55 AM,10.4,8.6,92,29.76,4.0,SE,4.6,-,N/A,,Mist,140,2014-02-18 07:55:00
2:14 AM,14.0,10.4,86,29.76,2.5,ESE,3.5,-,N/A,,Mist,110,2014-02-18 08:14:00
2:35 AM,12.2,10.4,92,29.74,3.0,ESE,3.5,-,N/A,,Mist,110,2014-02-18 08:35:00
2:55 AM,14.0,10.4,86,29.72,3.0,SE,3.5,-,N/A,,Mist,130,2014-02-18 08:55:00
3:14 AM,12.2,10.4,92,29.71,3.0,ESE,4.6,-,N/A,,Mist,110,2014-02-18 09:14:00
3:35 AM,15.8,14.0,93,29.70,4.0,ESE,4.6,-,N/A,,Mist,110,2014-02-18 09:35:00
3:55 AM,17.6,15.8,93,29.69,5.0,ESE,4.6,-,N/A,,Mist,110,2014-02-18 09:55:00
4:15 AM,17.6,15.8,93,29.67,7.0,ESE,4.6,-,N/A,,Unknown,120,2014-02-18 10:15:00
4:35 AM,17.6,15.8,93,29.67,5.0,ESE,3.5,-,N/A,,Mist,110,2014-02-18 10:35:00
4:55 AM,17.6,15.8,93,29.66,7.0,ESE,4.6,-,N/A,,Unknown,120,2014-02-18 10:55:00
5:15 AM,17.6,15.8,93,29.65,10.0,ESE,4.6,-,N/A,,Unknown,110,2014-02-18 11:15:00
5:35 AM,19.4,17.6,93,29.63,10.0,ESE,4.6,-,N/A,,Unknown,110,2014-02-18 11:35:00
5:55 AM,19.4,17.6,93,29.62,10.0,ESE,5.8,-,N/A,,Unknown,120,2014-02-18 11:55:00
6:15 AM,19.4,17.6,93,29.60,10.0,ESE,5.8,-,N/A,,Unknown,110,2014-02-18 12:15:00
6:35 AM,19.4,19.4,100,29.60,10.0,ESE,5.8,-,N/A,,Unknown,110,2014-02-18 12:35:00
6:55 AM,21.2,19.4,93,29.60,10.0,East,4.6,-,N/A,,Unknown,100,2014-02-18 12:55:00
7:15 AM,21.2,19.4,93,29.59,10.0,East,5.8,-,N/A,,Unknown,90,2014-02-18 13:15:00
7:35 AM,21.2,19.4,93,29.59,10.0,East,4.6,-,N/A,,Unknown,100,2014-02-18 13:35:00
7:55 AM,21.2,19.4,93,29.60,10.0,ESE,5.8,-,N/A,,Unknown,120,2014-02-18 13:55:00
8:15 AM,23.0,19.4,86,29.60,10.0,ESE,5.8,-,N/A,,Unknown,120,2014-02-18 14:15:00
8:35 AM,23.0,19.4,86,29.60,10.0,SE,8.1,-,N/A,,Unknown,130,2014-02-18 14:35:00
8:55 AM,24.8,19.4,80,29.59,10.0,ESE,5.8,-,N/A,,Unknown,110,2014-02-18 14:55:00
9:15 AM,24.8,19.4,80,29.58,10.0,SE,8.1,-,N/A,,Unknown,130,2014-02-18 15:15:00
9:35 AM,26.6,19.4,74,29.57,10.0,SE,6.9,-,N/A,,Unknown,130,2014-02-18 15:35:00
9:55 AM,28.4,19.4,69,29.58,10.0,ESE,4.6,-,N/A,,Unknown,110,2014-02-18 15:55:00
10:15 AM,30.2,21.2,69,29.57,10.0,ESE,4.6,-,N/A,,Unknown,120,2014-02-18 16:15:00
10:35 AM,32.0,21.2,64,29.57,10.0,Calm,Calm,-,N/A,,Unknown,0,2014-02-18 16:35:00
10:55 AM,33.8,21.2,60,29.56,10.0,Calm,Calm,-,N/A,,Unknown,0,2014-02-18 16:55:00
11:15 AM,33.8,21.2,60,29.55,10.0,Calm,Calm,-,N/A,,Clear,0,2014-02-18 17:15:00
11:35 AM,33.8,21.2,60,29.55,10.0,SE,3.5,-,N/A,,Clear,140,2014-02-18 17:35:00
11:55 AM,35.6,21.2,56,29.55,10.0,Calm,Calm,-,N/A,,Clear,0,2014-02-18 17:55:00
12:15 PM,37.4,23.0,56,29.54,10.0,Calm,Calm,-,N/A,,Clear,0,2014-02-18 18:15:00
12:35 PM,39.2,23.0,52,29.55,10.0,Calm,Calm,-,N/A,,Clear,0,2014-02-18 18:35:00
12:55 PM,39.2,24.8,56,29.55,10.0,West,4.6,-,N/A,,Clear,280,2014-02-18 18:55:00
1:15 PM,39.2,23.0,52,29.56,10.0,Calm,Calm,-,N/A,,Clear,0,2014-02-18 19:15:00
1:35 PM,39.2,24.8,56,29.55,10.0,Calm,Calm,-,N/A,,Clear,0,2014-02-18 19:35:00
1:54 PM,41.0,24.8,53,29.55,10.0,West,3.5,-,N/A,,Clear,260,2014-02-18 19:54:00
2:15 PM,42.8,23.0,46,29.55,10.0,West,4.6,-,N/A,,Clear,270,2014-02-18 20:15:00
2:35 PM,41.0,24.8,53,29.55,10.0,West,5.8,-,N/A,,Clear,270,2014-02-18 20:35:00
2:55 PM,41.0,24.8,53,29.55,10.0,WNW,5.8,-,N/A,,Clear,300,2014-02-18 20:55:00
3:15 PM,42.8,24.8,49,29.55,10.0,West,4.6,-,N/A,,Clear,270,2014-02-18 21:15:00
3:35 PM,42.8,24.8,49,29.56,10.0,West,4.6,-,N/A,,Clear,270,2014-02-18 21:35:00
3:55 PM,41.0,24.8,53,29.56,10.0,West,4.6,-,N/A,,Clear,280,2014-02-18 21:55:00
4:15 PM,41.0,24.8,53,29.57,10.0,West,4.6,-,N/A,,Clear,280,2014-02-18 22:15:00
4:35 PM,39.2,24.8,56,29.58,10.0,WNW,5.8,-,N/A,,Clear,290,2014-02-18 22:35:00
4:55 PM,39.2,24.8,56,29.58,10.0,WNW,3.5,-,N/A,,Clear,300,2014-02-18 22:55:00
5:15 PM,39.2,24.8,56,29.59,10.0,NW,4.6,-,N/A,,Mostly Cloudy,310,2014-02-18 23:15:00
5:35 PM,37.4,24.8,60,29.60,10.0,Calm,Calm,-,N/A,,Mostly Cloudy,0,2014-02-18 23:35:00
5:55 PM,37.4,24.8,60,29.61,10.0,NW,3.5,-,N/A,,Mostly Cloudy,310,2014-02-18 23:55:00
6:15 PM,37.4,24.8,60,29.62,10.0,WNW,3.5,-,N/A,,Mostly Cloudy,290,2014-02-19 00:15:00
6:35 PM,35.6,26.6,70,29.63,10.0,West,4.6,-,N/A,,Overcast,280,2014-02-19 00:35:00
6:55 PM,37.4,26.6,65,29.65,10.0,WNW,5.8,-,N/A,,Overcast,290,2014-02-19 00:55:00
7:15 PM,37.4,26.6,65,29.66,10.0,WNW,6.9,-,N/A,,Scattered Clouds,290,2014-02-19 01:15:00
7:35 PM,35.6,26.6,70,29.66,10.0,West,4.6,-,N/A,,Clear,280,2014-02-19 01:35:00
7:55 PM,35.6,26.6,70,29.67,10.0,West,6.9,-,N/A,,Clear,280,2014-02-19 01:55:00
8:15 PM,35.6,26.6,70,29.67,10.0,WNW,4.6,-,N/A,,Clear,290,2014-02-19 02:15:00
8:35 PM,33.8,26.6,75,29.68,10.0,West,3.5,-,N/A,,Clear,280,2014-02-19 02:35:00
8:55 PM,33.8,26.6,75,29.69,10.0,West,3.5,-,N/A,,Clear,280,2014-02-19 02:55:00
9:15 PM,33.8,26.6,75,29.70,10.0,WNW,3.5,-,N/A,,Clear,290,2014-02-19 03:15:00
9:35 PM,33.8,26.6,75,29.71,10.0,WNW,4.6,-,N/A,,Clear,290,2014-02-19 03:35:00
9:55 PM,32.0,26.6,80,29.72,10.0,West,3.5,-,N/A,,Clear,280,2014-02-19 03:55:00
10:15 PM,30.2,26.6,86,29.72,10.0,Calm,Calm,-,N/A,,Clear,0,2014-02-19 04:15:00
10:35 PM,30.2,26.6,86,29.73,10.0,Calm,Calm,-,N/A,,Clear,0,2014-02-19 04:35:00
10:55 PM,30.2,26.6,86,29.73,10.0,Calm,Calm,-,N/A,,Clear,0,2014-02-19 04:55:00
11:15 PM,30.2,24.8,80,29.74,10.0,West,3.5,-,N/A,,Clear,270,2014-02-19 05:15:00
11:35 PM,30.2,26.6,86,29.74,10.0,West,4.6,-,N/A,,Clear,270,2014-02-19 05:35:00
11:55 PM,28.4,24.8,86,29.75,10.0,Calm,Calm,-,N/A,,Clear,0,2014-02-19 05:55:00